This is the latest recevied weather packets stored in our database for station/object N2XGL-1. If no packets are shown the sender has not sent any weather packets the latest 10 day(s).
| Time | Temp. | Humidity | Pressure | Rain* | Wind** | Luminosity | Snow |
|---|---|---|---|---|---|---|---|
| 1777704294 | 5° C | 46% | 1017.6 hPa | 0 mm | - | - | - |
| 1777702775 | 5.56° C | 47% | 1017.6 hPa | 0 mm | - | - | - |
| 1777702689 | 5.56° C | 47% | 1017.6 hPa | 0 mm | - | - | - |
| 1777702462 | 5.56° C | 45% | 1017.5 hPa | 0 mm | - | - | - |
| 1777702198 | 5.56° C | 46% | 1017.6 hPa | 0 mm | - | - | - |
| 1777701714 | 5.56° C | 45% | 1017.5 hPa | 0 mm | - | - | - |
| 1777701149 | 6.11° C | 46% | 1017.6 hPa | 0 mm | - | - | - |
| 1777700599 | 6.11° C | 46% | 1017.5 hPa | 0 mm | - | - | - |
| 1777699074 | 6.67° C | 45% | 1017.5 hPa | 0 mm | - | - | - |
| 1777698499 | 7.22° C | 46% | 1017.4 hPa | 0 mm | - | - | - |
| 1777697921 | 7.22° C | 43% | 1017.4 hPa | 0 mm | - | - | - |
| 1777697434 | 7.78° C | 42% | 1017.3 hPa | 0 mm | - | - | - |
| 1777696919 | 7.78° C | 41% | 1017.3 hPa | 0 mm | - | - | - |
| 1777695854 | 8.89° C | 40% | 1017.1 hPa | 0 mm | - | - | - |
| 1777694374 | 9.44° C | 38% | 1017 hPa | 0 mm | - | - | - |
| 1777694219 | 9.44° C | 38% | 1017 hPa | 0 mm | - | - | - |
| 1777693822 | 10° C | 38% | 1016.9 hPa | 0 mm | - | - | - |
| 1777693701 | 10° C | 38% | 1016.9 hPa | 0 mm | - | - | - |
| 1777693149 | 10.56° C | 39% | 1016.8 hPa | 0 mm | - | - | - |
| 1777692622 | 10.56° C | 35% | 1016.6 hPa | 0 mm | - | - | - |
| 1777692144 | 10.56° C | 35% | 1016.5 hPa | 0 mm | - | - | - |
| 1777691059 | 11.11° C | 35% | 1016.4 hPa | 0 mm | - | - | - |
| 1777689994 | 11.67° C | 32% | 1016.1 hPa | 0 mm | - | - | - |
| 1777689509 | 11.67° C | 32% | 1015.9 hPa | 0 mm | - | - | - |
| 1777688444 | 12.22° C | 32% | 1015.6 hPa | 0 mm | - | - | - |
* Rain latest hour (hover to see other rain measurements)
** Current wind speed in m/s (hover to see current wind gust speed)